Home > Weather > Brazzaville > Past weeks

Flag for Congo Weather for the Past 2 Weeks in Brazzaville, Congo

Now
88 °F

Scattered clouds.


Feels Like: 98 °F
Forecast: 75 / 83 °F
Wind: 3 mph from West

Location: Brazzaville / Maya-Maya

Current Time: May 4, 2016 at 6:49:21 PM

Latest Report: May 4, 2016 at 5:00 PM


Visibility: N/A

Pressure: 29.86 "Hg

Humidity: 66%

Dew Point: 75 °F

Location of BrazzavilleLocation

Historic Weather in Brazzaville — Graph

°F

Brazzaville Temperature Yesterday

Maximum temperature yesterday: 82 °F (at 9:00 AM)
Minimum temperature yesterday: 73 °F (at 12:00 PM)
Average temperature yesterday: 76 °F

High & Low Weather Summary for the Past Weeks

 TemperatureHumidityPressure
High95 °F (Apr 26, 4:00 PM)100% (Apr 20, 4:00 AM)30.01 "Hg (Apr 20, 4:00 AM)
Low72 °F (Apr 30, 4:00 AM)47% (Apr 26, 4:00 PM)29.71 "Hg (Apr 23, 4:00 PM)
Average80 °F81%29.87 "Hg
* Reported Apr 19 5:00 PM — May 4 5:00 PM, Brazzaville, Weather by CustomWeather, © 2016

Note: Actual official high and low records may vary slightly from our data, if they occured in-between our weather recording intervals... More about our weather records

Advertising

Brazzaville Weather History for the Previous 24 Hours

Scroll right to see more
 ConditionsComfort  
Time TempWeatherWind HumidityBarometerVisibility
5:00 PM
Wed, May 4
88 °FScattered clouds.3 mph66%29.86 "HgN/A
4:00 PM86 °FPassing clouds.6 mph70%29.86 "HgN/A
3:00 PM84 °FPassing clouds.8 mph74%29.83 "HgN/A
2:00 PM84 °FPartly sunny.6 mph74%29.86 "HgN/A
1:00 PM84 °FBroken clouds.5 mph74%29.92 "Hg6 mi
12:00 PM82 °FBroken clouds.6 mph74%29.95 "HgN/A
11:00 AM81 °FBroken clouds.3 mph79%29.95 "HgN/A
10:00 AM79 °FBroken clouds.3 mph84%29.98 "HgN/A
9:00 AM77 °FBroken clouds.No wind89%29.98 "HgN/A
8:00 AM75 °FBroken clouds.2 mph94%29.95 "HgN/A
7:00 AM73 °FScattered clouds.3 mph94%29.92 "HgN/A
6:00 AM73 °FScattered clouds.2 mph94%29.89 "Hg5 mi
5:00 AM73 °FPassing clouds.2 mph94%29.89 "Hg5 mi
4:00 AM73 °FPassing clouds.2 mph94%29.89 "Hg5 mi
3:00 AM73 °FPassing clouds.No wind94%29.89 "Hg5 mi
2:00 AM73 °FPassing clouds.2 mph94%29.89 "Hg5 mi
1:00 AM73 °FPassing clouds.3 mph94%29.92 "Hg5 mi
12:00 AM73 °FPassing clouds.5 mph94%29.92 "Hg5 mi
11:00 PM
Tue, May 3
73 °FClear.3 mph94%29.92 "Hg5 mi
10:00 PM75 °FClear.1 mph89%29.95 "Hg5 mi
9:00 PM75 °FPassing clouds.2 mph89%29.92 "Hg5 mi
8:00 PM75 °FPassing clouds.5 mph89%29.92 "Hg5 mi
7:00 PM75 °FPassing clouds.3 mph89%29.89 "Hg5 mi
6:00 PM75 °FPassing clouds.7 mph89%29.86 "HgN/A
Weather by CustomWeather, © 2016

See weather overviewHow to use our weather pages